Regional Weather Roundup
Issued by NWS Wakefield, VA

Home | Current Version | Previous Version | Graphics & Text | Print | Product List | Glossary On
Versions: 1 2 3 4 5 6 7 8 9 10 11 12 13 14 15 16 17 18 19 20 21 22 23 24 25 26 27 28 29 30 31 32 33 34 35 36 37 38 39 40 41 42 43 44 45 46 47 48 49 50
000
ASUS41 KAKQ 220810
RWRAKQ

REGIONAL WEATHER ROUNDUP
NATIONAL WEATHER SERVICE WAKEFIELD VA
400 AM EDT MON SEP 22 2014

Note: "fair" indicates few or no clouds below 12,000 feet with no
significant weather and/or obstructions to visibility. * = Denotes
station may not report precipitation (e.g., rain,snow,etc.),
thunder or fog.

VAZ042-051-052>054-056-220900-
NORTHERN VIRGINIA

CITY           SKY/WX    TMP DP  RH WIND       PRES   REMARKS
WASH NATIONAL  PTCLDY    70  46  42 NW13G20   29.84R
DULLES         CLEAR     63  47  55 NW12      29.85R
FORT BELVOIR   CLEAR     67  47  50 NW14      29.85R
QUANTICO       CLEAR     67  47  48 N13G23    29.85R
FREDERICKSBRG* CLEAR     66  52  60 W3        29.84R
STAFFORD*      CLEAR     60  51  73 CALM      29.89R
WARRENTON      CLEAR     64  54  70 NW9       29.85S
CULPEPER*      CLEAR     61  48  63 N5        29.87R
MANASSAS*      CLEAR     64  48  55 NW10      29.86R
LEESBURG*      CLEAR     63  50  63 NW9       29.86S
WINCHESTER     CLOUDY    63  46  55 W9        29.86S
FRONT ROYAL*   CLOUDY    63  46  55 W13G18    29.87S
LURAY*         PTSUNNY   64  46  52 W6        29.89R
$$

VAZ048-049-060>072-079>083-220900-
CENTRAL AND SOUTH CENTRAL VIRGINIA...AND NORTH CENTRAL NORTH CAROLINA

CITY           SKY/WX    TMP DP  RH WIND       PRES   REMARKS
RICHMOND       CLOUDY    75  49  39 NW10      29.85R
CHESTERFIELD*  CLOUDY   N/A N/A N/A NW13G18   29.87R
PETERSBURG*    CLOUDY    70  56  61 W5        29.86R
HANOVER        MOCLDY    71  48  43 W8        29.86R
TAPPAHANNOCK*  MOCLDY    69  50  51 CALM      29.84R
CHARLOTTSVILLE CLEAR     65  46  50 W5        29.88R
ORANGE*        CLEAR     61  46  59 CALM      29.88R
LOUISA*        CLEAR     63  48  59 SW3       29.86R
FARMVILLE*     PTCLDY    68  46  45 CALM      29.87R
CREWE*         CLOUDY    69  49  47 NW6       29.87R
FORT PICKETT*  CLOUDY    69  53  54 W5        29.88R
LUNENBURG*     CLOUDY    70  55  59 NW6       29.88R
SOUTH HILL*    MOCLDY    70  61  73 W3        29.93R
LAWRENCEVILLE* MOSUNNY   67  62  82 W3        29.87R
ROANOKE RAPIDS PTSUNNY   66  64  94 W3        29.87R
RALEIGH        MOCLDY    69  65  86 CALM      29.90R
$$

VAZ088>098-220900-
SOUTHEAST VIRGINIA

CITY           SKY/WX    TMP DP  RH WIND       PRES   REMARKS
NORFOLK        CLOUDY    75  64  68 W8        29.82R
VIRGINIA BEACH MOCLDY    73  65  75 W8        29.81R
NORFOLK NAVAL  MOCLDY    74  66  76 W8        29.84R
WEST POINT*    PTCLDY    73  57  57 CALM      29.85R
NEWPORT NEWS   PTCLDY    75  66  73 W8        29.83R
LANGLEY AFB    PTCLDY    72  67  82 W8        29.82R
FORT EUSTIS    PTCLDY    72  72 100 NW10      29.81R
WILLIAMSBURG*  PTCLDY    73  68  83 NW7       29.84R
HR EXEC AP*    PTSUNNY   72  64  78 W6        29.85R
FRANKLIN*      CLOUDY    72  64  78 W3        29.84R
WAKEFIELD      MOCLDY    69  64  84 W3        29.84R
$$

VAZ020-022-025-037-045-220900-
WEST CENTRAL AND SOUTHWEST VIRGINIA

CITY           SKY/WX    TMP DP  RH WIND       PRES   REMARKS
STAUNTON*      CLEAR     59  45  59 W3        29.93R
HOT SPRINGS VA MOCLDY    47  34  59 NW15G25   29.97R
LYNCHBURG      CLEAR     61  49  64 W5        29.93R
DANVILLE       CLEAR     67  53  61 NW6       29.93R
SOUTH BOSTON*  NOT AVBL
MARTINSVILLE   CLEAR     57  55  92 CALM      29.97S
ROANOKE        PTCLDY    59  47  64 W5        29.96R
BLACKSBURG     CLEAR     57  52  82 W7        29.99S
DUBLIN*        CLEAR     57  49  75 W6        30.00S
MARION*        CLEAR     55  48  77 S3        30.04R
HILLSVILLE*    CLEAR     55  47  76 W6        30.00S
RICHLANDS*     SUNNY     54  51  89 CALM      30.04S
WISE*          CLEAR     54  45  71 NW5       30.07S
ABINGDON*      CLEAR     58  50  75 CALM      30.03S
$$

MDZ021>025-VAZ099-100-220900-
SOUTHERN MARYLAND AND THE DELMARVA PENINSULA

CITY           SKY/WX    TMP DP  RH WIND       PRES   REMARKS
PATUXENT RIVER PTCLDY    70  48  45 NW17      29.81R
BAY BRIDGE APT   N/A     68  46  45 NW17G23   29.79R
LEONARDTOWN    PTCLDY    68  46  45 W6        29.83R
DOVER          CLEAR     67  57  69 W9        29.75R
GEORGETOWN     CLEAR     70  54  56 VRB6      29.79R
EASTON         CLEAR     70  52  51 CALM      29.83R
CAMBRIDGE      PTCLDY    72  46  40 NW9       29.79R
SALISBURY      CLEAR     71  53  52 NW6       29.79R
OCEAN CITY     CLEAR     70  53  54 NW8       29.78R
WALLOPS ISLAND PTCLDY    70  61  73 NW5       29.80R
ACCOMACK*      PTCLDY    72  55  56 NW7       29.81R
$$

NCZ012>017-030>032-220900-
EASTERN NORTH CAROLINA

CITY           SKY/WX    TMP DP  RH WIND       PRES   REMARKS
ELIZABETH CITY CLOUDY    73  66  78 W9        29.85R
AHOSKIE*       CLEAR     67  65  93 CALM      29.86R
EDENTON*       CLOUDY    72  67  85 W8        29.85S
CURRITUCK*     MOCLDY    73  64  73 SW7       29.84R
KILL DEVIL HLS PTCLDY    74  66  75 W8        29.83R
MANTEO         MOCLDY    74  66  76 W10G16    29.85R
CAPE HATTERAS  CLEAR     75  73  93 W12G22    29.86S
TARBORO*       SUNNY     69  66  92 CALM      29.87S
GOLDSBORO      CLEAR     71  70  97 CALM      29.86R
WASHINGTON     CLOUDY    69  66  90 CALM      29.87R
GREENVILLE     CLEAR     72  66  83 W5        29.89R
NEW BERN       CLOUDY    73  65  75 SW5       29.88R
WILMINGTON     MOCLDY    74  65  73 SW9       29.89S
$$

VAZ048-220900-
ELSEWHERE

CITY           SKY/WX    TMP DP  RH WIND       PRES   REMARKS
HARRISBURG PA  PTCLDY    63  51  65 W10       29.79R
BALTIMORE      PTCLDY    64  47  53 W13       29.81R
ANNAPOLIS      CLEAR     68  49  50 NW10      29.80R
ANDREWS AFB    CLEAR     67  47  49 NW16G25   29.83R
WILMINGTON DE  CLEAR     65  53  65 W12       29.77R
PHILADELPHIA   PTCLDY    68  58  70 W12       29.75R
WILDWOOD NJ*   PTCLDY    72  57  60 NW9G16    29.77R
ATLANTIC CITY  CLEAR     66  61  84 W6        29.74R
HENDERSON NC   CLOUDY    69  57  66 NW7       29.90R
GREENSBORO     PTCLDY    67  49  52 NW8       29.94R
ROCKY MOUNT    CLEAR     68  66  93 CALM      29.88R
FAYETTEVILLE   CLOUDY    74  65  73 W8        29.89R
CHARLOTTE      PTCLDY    70  54  56 N8        29.95R
$$

VAZ100-220900-
MARINE

STATION/POSITION TIME  TEMP    WIND        PRES    WAVE   SWELL
                       AIR SEA DIR/SP/G            HT/PER HT/PER
                 (UTC) (F)     (DEG/KT/KT) (MB)    (FT/S) (FT/S)
44066 TX TWR #4  0800   71 70  250/ 12/ 14 1004.5R   8/10   7/10
CAPE MAY NJ      0800   72 75  310/ 10/ 20 1007.0R
LEWES DE         0800   71 72  290/ 12/ 14 1007.6R
15NM E FENWICK I 0800   73 72              1007.4R   4/ 8
OCEAN-CITY-INLET 0800   72 72  320/  9/ 12 1007.8R
WACHAPREAGUE VA  0800   72 74  310/  2/  5 1009.2R
THOMAS POINT MD  0800   69 74  310/ 19/ 21 1009.8R
GOOSES REEF MD   0800   72     320/ 16/ 19 1009.5S
COVE POINT MD    0800   71     330/ 14/ 18 1009.3R
SOLOMONS ISLAND  0800      76                N/A
BISHOPS HEAD MD  0800   73 73  320/ 17/ 21 1008.9R
PINEY POINT MD   0800          340/ 17/ 19   N/A
POTOMAC MD       0800   74     340/ 16/ 21 1008.9R
CAMBRIDGE MD     0800   72 74  300/ 11/ 21 1008.7R
LEWISETTA VA     0800   72 75  270/  4/  5 1009.5R
RAPPAHANNOCK LGT 0800          330/ 16/ 19 1010.0R
STINGRAY PT      0800   75     330/ 12/ 14   N/A
YORK RVR RNG VA  0800   74     320/ 13/ 15 1009.2R
YORKTOWN VA      0800   73 76  290/ 12/ 15 1009.4R
JAMESTOWN VA     0800   71     310/ 10/ 12   N/A
DOMINION TERM VA 0800   74     290/ 12/ 14 1009.6R
KIPTOPEKE VA     0800      78  310/ 13/ 15   N/A
CHES BAY BRIDGE  0800   75 75  260/ 16/ 18 1009.1R
CAPE HENRY VA    0800   75     270/ 11/ 17 1008.2R
CHESAPEAKE LGHT  0700   75     260/ 19/ 21 1009.5R
WILLOUBY STN VA  0800   74     310/ 12/ 14 1008.5R
S CRANEY ISL VA  0800          250/  7/ 12 1009.5R
CAPE HENRY BUOY  0800      75                N/A     4/10   2/12
1ST LANDING BUOY 0800   76     280/ 16/ 21 1009.1S
CAPE CHARLES BUO 0800      74                N/A     4/ 8   3/ 8
OFFSHORE WE BUOY 0800      74                N/A     4/10   3/10
64NM E OF VA BCH 0800   75 76  240/ 14/ 17 1009.1R   6/10   5/10
DUCK PIER NC     0800   74 74  250/ 14/ 17 1009.6R
44100 DUCK FRF   0800      74                N/A     5/ 9   2/11
44056 DUCK FRF   0800                        N/A     3/ 9   2/11
OREGON INLET NC  0800   74 76  220/ 12/ 15 1010.5R
DIAMOND SHLS NC  0800   81     240/ 21/ 27 1011.0R   7/ 9   3/ 9
CAPE LOOKOUT NC  0700   79     240/ 12/ 17 1011.6F
$$


USA.gov is the U.S. government's official web portal to all federal, state and local government web resources and services.